OPS 4682 DEB, 17666

Orbit data source: Space-Track

OPS 4682 DEB, 17666 is space debris in LEO originally from a launch on Sat, 03 Apr 1965 UTC launched from the Air Force Western Test Range (AFWTR). Debris objects in space refer to the collection of defunct objects orbiting the Earth. Examples of debris include non-operational satellites, rocket bodies, and fragments generated from explosions, collisions, or faulty payload assembly.

Loading next visibility...
Identifier
17666, 1965-027V
Orbit
LEO
Country
Flag of USUS
Related business
Manufacturer
Unknown
Mission
Spacecraft
Bus & Motor
Unknown
Mass
Unknown
Launch date (UTC)
1965-04-03 (61 years ago)
Launch vehicle
Unknown
Launch site
Air Force Western Test Range (AFWTR)
Object type
Payload
Rocket body
Debris
Shape & HBR
Unknown shape, 0.1 m
Radar Cross Section
Small (<0.1 m²)

Expand to show TLE details & history
Last TLE update: 15 hours ago

TLE from 15 hours ago
0 OPS 4682 DEB
1 17666U 65027V   26138.36929095 -.00000206  00000-0 -73481-3 0  9995
2 17666  90.2473  11.3444 0040357 164.5531 258.4563 12.97297654945940
Epoch: 2026-05-18T08:51Z
TLE epoch observation values (Epoch: 2026-05-18T08:51:46.738Z)
Latitude
62.63933°
Longitude
1.86561°
Altitude
1,289.817 km
Speed
7.214 km/s
True Right ascension
00h 43m 28s
True Declination
62° 30' 30"
Sunlit
Object was in daylight at epoch
Visualization orbit readout
Latitude
Unknown
Longitude
Unknown
Altitude
Unknown
Speed
Unknown
Apparent Right ascension
Unknown
Apparent Declination
Unknown
Sunlit
N/A
Visualization observer readout
Local Sidereal Time
08:42:39
Azimuth
Unknown
Elevation
Unknown
Doppler factor
Unknown
Orbital elements
Apogee altitude
1,300.689 km
Perigee altitude
1,238.959 km
Semi-major axis
7,647.961 km
Eccentricity
0.00404
Inclination
90.2473°
RAAN
11.3444°
Arg. of periapsis
164.5531°
True anomaly
258.00366°
Mean anomaly
258.4563°
Eccentric anomaly
258.22993°
Mean motion
3.24507 °/min
Orbital period
110.94 mins
BSTAR
-0.00073481
Loading maneuver chart data...
Computing Atmospheric mass density...
Loading historical data...
Loading historical data...
Loading historical data...
Loading historical data...
Loading historical data...
Loading historical data...
Loading historical data...

Documentation

Showing up to 5 results
|